www.pogodaiklimat.ru

Погода и климат >> Архив погоды >> Россия >> Красноярский край >> Мотыгино


ПОГОДА в Мотыгино

  • Прогноз погоды в Мотыгино
  • Монитор погоды в Мотыгино

АРХИВ ПОГОДЫ в Мотыгино

Время (UTC), дата Ветер
(напр.,м/с)
 
Видим.   Явления Облачность Т
(С)
Тd
(С)
f
(%)
Тe
(С)
Тes
(С)
Комфортность P
(гПа)
Po
(гПа)
Тmin
(С)
Tmax
(С)
R
(мм)
R24
(мм)
S
(см)
18 10.08 штиль 0 н/о н/о +9.8 +9.0 95 +9 +9 1010.6 990.0
21 10.08 ЮВ 1 н/о н/о +8.4 +7.8 96 +7 +7 1011.2 990.4
00 11.08 штиль 0 н/о н/о +10.7 +10.0 95 +10 +10 1011.9 991.3 +7.4
03 11.08 З 1 н/о н/о +11.6 +10.8 95 +11 +11 1012.2 991.7
06 11.08 ЮЗ 2 н/о н/о +19.6 +12.2 62 +22 +22 комфорт 1010.5 990.6
09 11.08 ЮЗ 2 н/о н/о +19.8 +10.7 56 +22 +22 комфорт 1010.3 990.4
12 11.08 З 3 н/о н/о +18.7 +10.5 59 +19 +19 1010.7 990.7 +21.1 0.0
15 11.08 ЮЗ 1 н/о н/о +12.9 +10.3 84 +13 +13 1011.7 991.3
18 11.08 ЮЗ 1 н/о н/о +12.4 +10.9 91 +12 +12 1011.7 991.2
21 11.08 Ю 1 н/о н/о +10.3 +9.4 94 +10 +10 1011.5 990.9
00 12.08 н/о 0.0
03 12.08 ЮЗ 1 н/о н/о +15.2 +12.0 81 +16 +16 1011.8 991.6
06 12.08 ЮЗ 2 н/о н/о +17.2 +11.7 70 +18 +18 1010.6 990.5
09 12.08 З 2 н/о н/о +17.0 +11.9 72 +17 +17 1009.8 989.7
12 12.08 СЗ 1 н/о н/о +16.6 +11.6 72 +17 +17 1010.5 990.3 +18.6 0.5
15 12.08 С 1 н/о н/о +12.2 +10.0 86 +12 +12 1010.7 990.2
18 12.08 штиль 0 н/о н/о +9.1 +7.7 91 +8 +8 1010.1 989.4
21 12.08 штиль 0 н/о н/о +9.9 +8.6 92 +9 +9 1009.1 988.5
00 13.08 З 1 н/о н/о +10.0 +8.8 92 +9 +9 1008.6 988.0 +8.9 2
03 13.08 З 1 н/о н/о +10.6 +9.2 91 +10 +10 1008.3 987.8
06 13.08 СЗ 1 н/о н/о +11.4 +10.1 92 +11 +11 1008.7 988.3
09 13.08 СЗ 1 н/о н/о +12.8 +11.9 94 +13 +13 1009.8 989.4
12 13.08 С 1 н/о н/о +13.6 +11.7 88 +14 +14 1010.9 990.5 +13.7 0.8
15 13.08 штиль 0 н/о н/о +11.7 +10.9 95 +11 +11 1011.5 991.0
18 13.08 штиль 0 н/о н/о +11.3 +10.4 94 +11 +11 1011.7 991.1
21 13.08 штиль 0 н/о н/о +10.2 +9.4 95 +9 +9 1012.9 992.2
00 14.08 штиль 0 н/о н/о +10.5 +9.8 95 +10 +10 1014.6 994.0 +8.6
03 14.08 С 2 н/о н/о +15.7 +10.5 71 +16 +16 1015.5 995.2
06 14.08 В 2 н/о н/о +18.5 +10.5 60 +19 +19 1016.0 995.8
09 14.08 СВ 1 н/о н/о +21.0 +11.2 53 +24 +24 комфорт 1015.8 995.8
12 14.08 ЮЗ 1 н/о н/о +19.6 +12.5 64 +22 +22 комфорт 1015.9 995.9 +21.8
15 14.08 В 1 н/о н/о +11.1 +10.2 94 +11 +11 1017.6 996.9
18 14.08 штиль 0 н/о н/о +8.6 +8.0 96 +8 +8 1018.2 997.3
21 14.08 штиль 0 н/о н/о +6.8 +6.3 97 +6 +6 1018.0 997.0
00 15.08 С 1 н/о н/о +9.2 +8.3 94 +8 +8 1017.9 997.1 +6.6
03 15.08 З 1 н/о н/о +17.3 +12.7 74 +18 +18 1017.0 996.8
06 15.08 В 1 н/о н/о +22.5 +13.7 57 +26 +26 жарко 1015.5 995.7
09 15.08 В 1 н/о н/о +21.2 +14.1 64 +24 +24 комфорт 1014.7 994.8
12 15.08 штиль 0 н/о н/о +20.6 +14.7 69 +23 +23 комфорт 1014.4 994.5 +23.8
15 15.08 В 1 н/о н/о +14.1 +13.1 94 +14 +14 1015.1 994.7
18 15.08 СВ 1 н/о н/о +12.4 +11.2 92 +12 +12 1015.2 994.7
21 15.08 штиль 0 н/о н/о +9.9 +9.1 95 +9 +9 1015.7 995.0
00 16.08 СВ 1 н/о н/о +12.1 +11.1 94 +12 +12 1015.2 994.6 +9.8
03 16.08 В 1 н/о н/о +20.4 +13.7 65 +24 +24 комфорт 1014.6 994.6
06 16.08 В 2 н/о н/о +24.2 +14.1 53 +27 +27 жарко 1013.0 993.3
09 16.08 СВ 2 н/о н/о +23.7 +12.2 48 +25 +25 комфорт 1012.1 992.4
12 16.08 СВ 2 н/о н/о +21.1 +12.6 58 +23 +23 комфорт 1012.4 992.5 +24.5
15 16.08 СВ 1 н/о н/о +16.7 +12.5 76 +18 +18 1013.3 993.2
18 16.08 СВ 1 н/о н/о +14.5 +12.4 87 +15 +15 1013.7 993.3
21 16.08 СВ 1 н/о н/о +13.7 +12.2 91 +14 +14 1014.1 993.7
00 17.08 СВ 1 н/о н/о +14.3 +12.0 86 +15 +15 1014.9 994.5 +12.1
03 17.08 С 1 н/о н/о +19.3 +12.2 63 +22 +22 комфорт 1014.7 994.7
06 17.08 СВ 2 н/о н/о +22.5 +10.9 48 +25 +25 комфорт 1014.1 994.3
09 17.08 штиль 0 н/о н/о +20.9 +13.3 62 +23 +23 комфорт 1014.0 994.1
12 17.08 Ю 1 н/о н/о +19.4 +15.4 78 +22 +22 комфорт 1014.2 994.2 +22.9
15 17.08 СВ 2 н/о н/о +12.8 +9.1 78 +12 +12 1015.5 995.0

 

Местоположение метеостанции Мотыгино (Красноярский край, Россия): широта 58.18 долгота 94.70 высота над уровнем моря 170 м.

В архиве по умолчанию представлена погода в Мотыгино за последнюю неделю. Архивные данные за месяц целиком и за предыдущие месяцы, начиная с января 2011 года, Вы можете получить, выбрав интересующий диапазон дат из раскрывающегося списка и нажав кнопку "Ввод!".


*Определитесь, кто Вы:
робот инопланетянин человек

Внимание! Время в таблицах - всемирное. Для получения местного времени необходимо прибавить поправку, которая равна 7 ч.

Смотрите также архив погоды в соседних городах и на ближайших метеорологических станциях:

Погода в Стрелке (Красноярский край, Россия) (100 км)
Погода в Казачинском (Красноярский край, Россия) (101 км)
Погода в Тасеево (Красноярский край, Россия) (109 км)
Погода в Дзержинском (Красноярский край, Россия) (151 км)
Погода в Енисейске (Красноярский край, Россия) (152 км)
Погода в Пировском (Красноярский край, Россия) (156 км)
Погода в Богучанах (Красноярский край, Россия) (162 км)
Погода в Большой Мурте (Красноярский край, Россия) (170 км)
Погода в Абане (Красноярский край, Россия) (183 км)
Погода в Сухобузимском (Красноярский край, Россия) (205 км)

Пояснения к столбцам:

Ветер - указаны скорость ветра в м/с - средняя за 10 мин, порывы в срок и между сроками (в фигурных скобках) и направление, откуда дует ветер: С - северный, СВ - северо-восточный, В - восточный, ЮВ - юго-восточный, Ю - южный, ЮЗ - юго-западный, З - западный, СЗ - северо-западный.
Видимость - горизонтальная дальность видимости в метрах или километрах. При видимости от 1 до 10 км при отсутствии осадков обычно наблюдается дымка, при ухудшении видимости до 1 км и менее - туман. В сухую погоду видимость может ухудшаться дымом, пылью или мглою.
Явления - указаны атмосферные явления, наблюдавшиеся в срок или в последний час перед сроком; фигурными скобками обозначены явления, наблюдавшиеся между сроками (за 1-3 часа до срока); квадратными скобками обозначены град или гололедные отложения с указанием их диаметра в мм.
Облачность - указаны через наклонную черту общая и нижняя облачность в баллах и высота нижней границы облаков в метрах; квадратными скобками обозначены формы облаков: Ci - перистые, Cs - перисто-слоистые, Cc - перисто-кучевые, Ac - высококучевые, As - высокослоистые, Sc - слоисто-кучевые, Ns - слоисто-дождевые, Cu - кучевые, Cb - кучево-дождевые. Подробнее классификацию облаков см. в Атласе облаков (PDF).
T - Температура воздуха - температура, измеренная на высоте 2 м над землей.
Td - Температура точки росы - температура, при понижении до которой содержащийся в воздухе водяной пар достигнет насыщения.
f - Относительная влажность воздуха - влажноcть воздуха, измеренная на высоте 2 м над землей.
Te - Эффективная температура - температура, которую ощущает одетый по сезону человек в тени. Характеристика душности погоды. При расчете учитывается влияние влажности воздуха и скорости ветра на теплоощущения человека.
Tes - Эффективная температура на солнце - температура, которую ощущает человек, с поправкой на солнечный нагрев. Характеристика знойности погоды. Зависит от высоты солнца над горизонтом, облачности и скорости ветра. Ночью, в пасмурную погоду, а также при ветре 12 м/с и более поправка равна нулю.
P - Атмосферное давление - приведенное к уровню моря атмосферное давление.
Po - Атмосферное давление - измеренное на уровне метеостанции атмосферное давление.
Tmin - Минимальная температура - минимум температуры воздуха на высоте 2 м над землей.
Tmax - Максимальная температура - максимум температуры воздуха на высоте 2 м над землей.
R - Количество осадков - Количество выпавших осадков за период времени, мм. При наведении курсора мыши на число - период времени, за который выпало указанное количество осадков.
R24 - Количество осадков - Количество выпавших осадков за 24 часа, мм.
S - Снежный покров - Высота снежного покрова, см. При наведении курсора мыши на число - состояние снежного покрова и степень покрытия местности в баллах.